Back to catalog

METEOR 2-8 DEB

LostPO
NORAD 36318·DEBRIS·🇷🇺 Russia

Launched Mar 25, 1982 from Plesetsk Cosmodrome

Loading…

Next Passes (next 24 hours)

TLE

StaleSource: Space-Track

Epoch: Jul 30, 2024, 22:28 UTC

1 36318U 82025C   24212.93627620  .00006354  00000-0  31278-2 0  9995
2 36318  82.5319 100.0197 0013243  22.2817 337.8934 14.17411740992179

Track METEOR 2-8 DEB in real time with AllMySat

Download on the App Store